Weather History for Marathon, FL

Change the Weather History Date:

Wednesday, October 3, 2012

  Actual Average Record
Temperature  
Mean Temperature 84 °F 83 °F  
Max Temperature 90 °F 88 °F 90 °F (1998)
Min Temperature 77 °F 78 °F 72 °F (1999)
Degree Days  
Heating Degree Days 0 0  
Month to date heating degree days 0 0  
Since 1 July heating degree days 0 0  
Cooling Degree Days 19 18  
Month to date cooling degree days 54 54  
Year to date cooling degree days 4297 4008  
Growing Degree Days 33 (Base 50)    
Moisture  
Dew Point 78 °F    
Average Humidity 85    
Maximum Humidity 100    
Minimum Humidity 70    
Precipitation  
Precipitation 0.00 in 0.19 in 3.26 in (2000)
Month to date precipitation 0.58 0.56  
Year to date precipitation 40.71 37.11  
Snow  
Snow 0.00 in - - ()
Month to date snowfall 0.0  
Since 1 July snowfall 0.0  
Since 1 September snowfall 0.0  
Snow Depth 0.00 in    
Sea Level Pressure  
Sea Level Pressure 30.08 in    
Wind  
Wind Speed 5 mph (ESE)    
Max Wind Speed 13 mph    
Max Gust Speed 18 mph    
Visibility 10 miles    
Events      
T = Trace of Precipitation, MM = Missing Value Source: NWS Daily Summary

Daily Weather History Graph

Daily Weather History Graph

Search for Another Location

Airport:

Trip Planner

Search our weather history database for the weather conditions in past years. The results will help you decide how hot, cold, wet, or windy it might be!

Date:

Astronomy

Oct. 03, 2012 Rise Set
Actual Time 7:17 AM EDT 7:08 PM EDT
Civil Twilight 6:54 AM EDT 7:31 PM EDT
Nautical Twilight 6:27 AM EDT 7:57 PM EDT
Astronomical Twilight 6:01 AM EDT 8:24 PM EDT
Moon 9:25 PM EDT (10/3) 10:14 AM EDT (10/3)
Length of Visible Light 12h 36m
Length of Day
11h 51m
Waning Gibbous, 89% of the Moon is Illuminated
Oct 3
Waning Gibbous
Oct 8
Last Quarter
Oct 15
New
Oct 21
First Quarter
Oct 29
Full

Hourly Weather History & Observations

Time (EDT) Temp. Heat Index Dew Point Humidity Pressure Visibility Wind Dir Wind Speed Gust Speed Precip Events Conditions
12:53 AM 78.1 °F - 77.0 °F 96% 30.06 in 9.0 mi SSE 3.5 mph - 0.01 in   Clear
1:53 AM 77.0 °F - 75.9 °F 96% 30.04 in 10.0 mi Calm Calm - N/A   Clear
2:53 AM 77.0 °F - 75.9 °F 96% 30.05 in 10.0 mi Calm Calm - N/A   Clear
3:53 AM 77.0 °F - 77.0 °F 100% 30.04 in 10.0 mi Calm Calm - N/A   Clear
4:53 AM 78.1 °F - 77.0 °F 96% 30.04 in 10.0 mi Calm Calm - N/A   Clear
5:53 AM 77.0 °F - 75.9 °F 96% 30.05 in 10.0 mi Calm Calm - N/A   Clear
6:53 AM 79.0 °F - 75.9 °F 90% 30.06 in 10.0 mi East 3.5 mph - N/A   Clear
7:53 AM 81.0 °F 87.9 °F 77.0 °F 88% 30.07 in 10.0 mi ENE 6.9 mph - N/A   Clear
8:53 AM 84.0 °F 97.3 °F 80.1 °F 88% 30.08 in 10.0 mi East 8.1 mph - N/A   Clear
9:53 AM 86.0 °F 100.8 °F 80.1 °F 82% 30.09 in 10.0 mi ESE 6.9 mph - N/A   Clear
10:53 AM 87.1 °F 104.4 °F 81.0 °F 82% 30.10 in 10.0 mi ESE 6.9 mph - N/A   Clear
11:53 AM 88.0 °F 104.3 °F 80.1 °F 77% 30.10 in 10.0 mi ESE 9.2 mph 18.4 mph N/A   Clear
12:53 PM 89.1 °F 106.4 °F 80.1 °F 75% 30.10 in 10.0 mi SE 5.8 mph - N/A   Clear
1:53 PM 89.1 °F 104.4 °F 79.0 °F 72% 30.09 in 10.0 mi SE 6.9 mph - N/A   Partly Cloudy
2:53 PM 89.1 °F 104.4 °F 79.0 °F 72% 30.07 in 10.0 mi ESE 5.8 mph - N/A   Partly Cloudy
3:53 PM 88.0 °F 103.1 °F 79.0 °F 75% 30.06 in 10.0 mi ESE 4.6 mph - N/A   Partly Cloudy
4:53 PM 89.1 °F 103.2 °F 78.1 °F 70% 30.07 in 10.0 mi Variable 3.5 mph - N/A   Clear
5:53 PM 86.0 °F 96.9 °F 77.0 °F 74% 30.07 in 10.0 mi East 5.8 mph - N/A   Clear
6:53 PM 84.9 °F 96.6 °F 78.1 °F 80% 30.07 in 10.0 mi East 5.8 mph - N/A   Partly Cloudy
7:53 PM 84.9 °F 96.6 °F 78.1 °F 80% 30.08 in 10.0 mi East 4.6 mph - N/A   Clear
8:53 PM 84.0 °F 97.3 °F 80.1 °F 88% 30.10 in 10.0 mi East 9.2 mph - N/A   Scattered Clouds
9:53 PM 84.0 °F 96.0 °F 79.0 °F 85% 30.11 in 10.0 mi East 4.6 mph - N/A   Clear
10:53 PM 84.0 °F 94.8 °F 78.1 °F 82% 30.14 in 10.0 mi East 8.1 mph - N/A   Clear
11:53 PM 84.0 °F 96.0 °F 79.0 °F 85% 30.13 in 10.0 mi East 8.1 mph 17.3 mph N/A   Clear